Time,TemperatureF,DewpointF,PressureIn,WindDirection,WindDirectionDegrees,WindSpeedMPH,WindSpeedGustMPH,Humidity,HourlyPrecipIn,Conditions,Clouds,dailyrainin,SoftwareType,DateUTC
2013-11-11 00:00:00,72.0,67.2,29.81,SSE,158,0.6,1.3,85,0.00,,SCT300,0.00,VWS V13.01,2013-11-10 14:00:00,
2013-11-11 00:15:00,71.5,67.1,29.80,SSE,158,0.6,0.0,86,0.00,,SCT300,0.00,VWS V13.01,2013-11-10 14:15:00,
2013-11-11 00:30:00,71.2,67.1,29.80,SSE,158,0.6,1.3,87,0.00,,SCT300,0.00,VWS V13.01,2013-11-10 14:30:00,
2013-11-11 00:45:00,71.3,67.2,29.79,SSE,158,0.6,1.3,87,0.00,,SCT300,0.00,VWS V13.01,2013-11-10 14:45:00,
2013-11-11 01:00:00,71.3,67.2,29.79,SSE,158,0.6,1.3,87,0.00,,SCT300,0.00,VWS V13.01,2013-11-10 15:00:00,
2013-11-11 01:15:00,71.2,67.1,29.78,SSE,158,0.6,0.0,87,0.00,,SCT300,0.00,VWS V13.01,2013-11-10 15:15:00,
2013-11-11 01:30:00,70.8,67.1,29.78,SSE,158,0.6,1.3,88,0.00,,SCT300,0.00,VWS V13.01,2013-11-10 15:30:00,
2013-11-11 01:45:00,70.5,67.1,29.78,SSE,158,0.6,0.0,89,0.00,,SCT300,0.00,VWS V13.01,2013-11-10 15:45:00,
2013-11-11 02:00:00,70.5,67.1,29.78,SSE,158,0.6,0.0,89,0.00,,FEW028,0.00,VWS V13.01,2013-11-10 16:00:00,
2013-11-11 02:15:00,70.6,67.2,29.77,SSE,158,0.6,0.0,89,0.00,,SCT300,0.00,VWS V13.01,2013-11-10 16:15:00,
2013-11-11 02:30:00,71.0,67.6,29.77,SSE,158,0.6,1.3,89,0.00,,SCT300,0.00,VWS V13.01,2013-11-10 16:30:00,
2013-11-11 02:45:00,70.8,67.4,29.77,SSE,158,0.6,0.0,89,0.00,,SCT300,0.00,VWS V13.01,2013-11-10 16:45:00,
2013-11-11 03:00:00,70.8,67.4,29.77,SSE,158,0.6,1.3,89,0.00,,SCT300,0.00,VWS V13.01,2013-11-10 17:00:00,
2013-11-11 03:15:00,70.5,67.4,29.77,SSE,158,0.6,2.5,90,0.00,,SCT300,0.00,VWS V13.01,2013-11-10 17:15:00,
2013-11-11 03:30:00,70.4,67.3,29.78,SE,135,0.6,3.8,90,0.00,,SCT300,0.00,VWS V13.01,2013-11-10 17:30:00,
2013-11-11 03:45:00,70.6,67.5,29.79,SSE,158,0.6,1.3,90,0.00,,SCT300,0.00,VWS V13.01,2013-11-10 17:45:00,
2013-11-11 04:00:00,70.6,67.5,29.79,SSE,158,0.6,1.3,90,0.00,,SCT300,0.00,VWS V13.01,2013-11-10 18:00:00,
2013-11-11 04:15:00,70.7,67.3,29.78,South,180,0.6,2.5,89,0.00,,SCT300,0.00,VWS V13.01,2013-11-10 18:15:00,
2013-11-11 04:30:00,71.0,67.6,29.78,SSE,158,0.6,1.3,89,0.00,,SCT300,0.00,VWS V13.01,2013-11-10 18:30:00,
2013-11-11 04:45:00,71.2,67.5,29.79,SSW,202,1.9,7.5,88,0.00,,SCT300,0.00,VWS V13.01,2013-11-10 18:45:00,
2013-11-11 05:00:00,70.9,67.2,29.78,SSE,158,0.6,1.3,88,0.00,,SCT300,0.00,VWS V13.01,2013-11-10 19:00:00,
2013-11-11 05:15:00,70.7,67.0,29.79,South,180,0.6,2.5,88,0.00,,SCT300,0.00,VWS V13.01,2013-11-10 19:15:00,
2013-11-11 05:30:00,70.8,67.1,29.80,South,180,0.6,5.0,88,0.00,,SCT300,0.00,VWS V13.01,2013-11-10 19:30:00,
2013-11-11 05:45:00,70.7,67.0,29.81,SSE,158,0.6,2.5,88,0.00,,SCT300,0.00,VWS V13.01,2013-11-10 19:45:00,
2013-11-11 06:00:00,70.4,66.7,29.81,SE,135,0.6,3.8,88,0.00,,SCT300,0.00,VWS V13.01,2013-11-10 20:00:00,
2013-11-11 06:15:00,70.5,66.1,29.82,SE,135,0.6,5.0,86,0.00,,SCT300,0.00,VWS V13.01,2013-11-10 20:15:00,
2013-11-11 06:30:00,71.5,67.1,29.82,SE,135,1.9,5.0,86,0.00,,SCT300,0.00,VWS V13.01,2013-11-10 20:30:00,
2013-11-11 06:45:00,72.2,67.1,29.82,SE,135,1.9,5.0,84,0.00,,SCT300,0.00,VWS V13.01,2013-11-10 20:45:00,
2013-11-11 07:00:00,73.9,67.7,29.83,SE,135,1.9,6.2,81,0.00,,FEW028,0.00,VWS V13.01,2013-11-10 21:00:00,
2013-11-11 07:05:00,73.9,67.7,29.83,SE,135,1.9,6.2,81,0.00,,SCT300,0.00,VWS V13.01,2013-11-10 21:05:00,
2013-11-11 07:10:00,76.9,69.2,29.83,SE,138,1.9,6.2,77,0.00,,SCT300,0.00,VWS V13.01,2013-11-10 21:10:00,
2013-11-11 07:15:00,77.7,69.5,29.83,SE,141,0.6,6.2,76,0.00,,SCT300,0.00,VWS V13.01,2013-11-10 21:15:00,
2013-11-11 07:20:00,78.2,68.8,29.83,SE,141,1.9,6.2,73,0.00,,FEW028,0.00,VWS V13.01,2013-11-10 21:20:00,
2013-11-11 07:26:00,78.5,69.1,29.83,SE,130,1.9,6.2,73,0.00,,FEW028,0.00,VWS V13.01,2013-11-10 21:26:00,
2013-11-11 07:30:00,78.7,69.3,29.83,SE,133,1.9,6.2,73,0.00,,FEW028,0.00,VWS V13.01,2013-11-10 21:30:00,
2013-11-11 07:31:00,78.9,69.1,29.83,SE,137,0.6,6.2,72,0.00,,FEW028,0.00,VWS V13.01,2013-11-10 21:31:00,
2013-11-11 07:36:00,79.1,69.3,29.83,SE,139,1.9,6.2,72,0.00,,FEW028,0.00,VWS V13.01,2013-11-10 21:36:00,
2013-11-11 07:44:00,79.6,69.8,29.83,ESE,117,1.9,6.2,72,0.00,,FEW028,0.00,VWS V13.01,2013-11-10 21:44:00,
2013-11-11 07:45:00,79.6,69.8,29.83,ESE,117,1.9,6.2,72,0.00,,FEW028,0.00,VWS V13.01,2013-11-10 21:45:00,
2013-11-11 07:49:00,80.6,69.1,29.83,SSE,147,4.4,6.2,68,0.00,,FEW028,0.00,VWS V13.01,2013-11-10 21:49:00,
2013-11-11 08:00:00,80.6,68.6,29.82,SE,135,3.1,7.5,67,0.00,,FEW028,0.00,VWS V13.01,2013-11-10 22:00:00,
2013-11-11 08:15:00,81.2,67.9,29.82,SE,135,3.1,8.7,64,0.00,,FEW028,0.00,VWS V13.01,2013-11-10 22:15:00,
2013-11-11 08:17:00,82.4,68.6,29.82,SE,128,8.1,8.1,63,0.00,,FEW028,0.00,VWS V13.01,2013-11-10 22:17:00,
2013-11-11 08:22:00,82.3,68.5,29.83,South,185,3.1,6.2,63,0.00,,FEW028,0.00,VWS V13.01,2013-11-10 22:22:00,
2013-11-11 08:30:00,82.4,68.1,29.83,SE,135,4.4,12.5,62,0.00,,FEW028,0.00,VWS V13.01,2013-11-10 22:30:00,
2013-11-11 08:31:00,83.2,68.8,29.83,SSE,159,3.1,6.2,62,0.00,,FEW028,0.00,VWS V13.01,2013-11-10 22:31:00,
2013-11-11 08:36:00,83.7,68.8,29.83,SE,145,6.9,6.9,61,0.00,,FEW028,0.00,VWS V13.01,2013-11-10 22:36:00,
2013-11-11 08:45:00,83.4,69.0,29.83,SE,135,3.1,12.5,62,0.00,,FEW028,0.00,VWS V13.01,2013-11-10 22:45:00,
2013-11-11 09:00:00,84.0,68.6,29.83,SE,135,3.1,10.0,60,0.00,,FEW028,0.00,VWS V13.01,2013-11-10 23:00:00,
2013-11-11 09:15:00,84.8,69.4,29.82,SE,135,3.1,11.3,60,0.00,,FEW028,0.00,VWS V13.01,2013-11-10 23:15:00,
2013-11-11 09:30:00,85.7,69.2,29.83,SSE,158,3.1,6.2,58,0.00,,FEW028,0.00,VWS V13.01,2013-11-10 23:30:00,
2013-11-11 09:45:00,86.2,70.7,29.82,SE,135,4.4,8.7,60,0.00,,FEW028,0.00,VWS V13.01,2013-11-10 23:45:00,
2013-11-11 10:00:00,86.0,71.0,29.82,East,90,5.6,12.5,61,0.00,,FEW028,0.00,VWS V13.01,2013-11-11 00:00:00,
2013-11-11 10:15:00,85.7,71.2,29.82,ESE,112,5.6,13.7,62,0.00,,FEW028,0.00,VWS V13.01,2013-11-11 00:15:00,
2013-11-11 10:30:00,85.2,70.2,29.82,East,90,8.1,13.7,61,0.00,,FEW028,0.00,VWS V13.01,2013-11-11 00:30:00,
2013-11-11 10:45:00,85.0,71.0,29.82,East,90,6.9,15.0,63,0.00,,FEW028,0.00,VWS V13.01,2013-11-11 00:45:00,
2013-11-11 11:00:00,85.6,71.6,29.82,East,90,6.9,15.0,63,0.00,,FEW028,0.00,VWS V13.01,2013-11-11 01:00:00,
2013-11-11 11:15:00,86.1,72.0,29.81,East,90,6.9,16.3,63,0.00,,FEW028,0.00,VWS V13.01,2013-11-11 01:15:00,
2013-11-11 11:30:00,85.8,72.7,29.81,ESE,112,8.1,16.3,65,0.00,,FEW028,0.00,VWS V13.01,2013-11-11 01:30:00,
2013-11-11 11:45:00,86.2,72.1,29.81,East,90,8.1,16.3,63,0.00,,FEW028,0.00,VWS V13.01,2013-11-11 01:45:00,
2013-11-11 12:00:00,86.5,71.9,29.80,East,90,9.4,17.5,62,0.00,,FEW028,0.00,VWS V13.01,2013-11-11 02:00:00,
2013-11-11 12:15:00,86.0,72.9,29.80,East,90,9.4,20.0,65,0.00,,FEW028,0.00,VWS V13.01,2013-11-11 02:15:00,
2013-11-11 12:30:00,85.8,72.2,29.79,East,90,9.4,18.7,64,0.00,,FEW028,0.00,VWS V13.01,2013-11-11 02:30:00,
2013-11-11 12:45:00,86.9,73.3,29.79,ESE,112,6.9,16.3,64,0.00,,FEW028,0.00,VWS V13.01,2013-11-11 02:45:00,
2013-11-11 13:00:00,86.0,73.3,29.78,ESE,112,8.1,20.0,66,0.00,,FEW028,0.00,VWS V13.01,2013-11-11 03:00:00,
2013-11-11 13:15:00,85.8,73.6,29.78,ESE,112,9.4,18.7,67,0.00,,FEW028,0.00,VWS V13.01,2013-11-11 03:15:00,
2013-11-11 13:30:00,85.5,73.3,29.77,East,90,9.4,20.0,67,0.00,,FEW028,0.00,VWS V13.01,2013-11-11 03:30:00,
2013-11-11 13:45:00,85.6,73.8,29.77,East,90,8.1,18.7,68,0.00,,FEW028,0.00,VWS V13.01,2013-11-11 03:45:00,
2013-11-11 14:00:00,85.6,73.4,29.77,ESE,112,8.1,20.0,67,0.00,,FEW028,0.00,VWS V13.01,2013-11-11 04:00:00,
2013-11-11 14:15:00,85.8,73.6,29.76,ESE,112,6.9,17.5,67,0.00,,FEW028,0.00,VWS V13.01,2013-11-11 04:15:00,
2013-11-11 14:30:00,85.5,73.3,29.76,East,90,6.9,16.3,67,0.00,,FEW028,0.00,VWS V13.01,2013-11-11 04:30:00,
2013-11-11 14:45:00,85.7,73.9,29.75,ESE,112,6.9,20.0,68,0.00,,FEW028,0.00,VWS V13.01,2013-11-11 04:45:00,
2013-11-11 15:00:00,86.1,74.8,29.75,East,90,6.9,21.3,69,0.00,,FEW028,0.00,VWS V13.01,2013-11-11 05:00:00,
2013-11-11 15:15:00,85.4,74.1,29.75,SE,135,8.1,18.7,69,0.00,,FEW028,0.00,VWS V13.01,2013-11-11 05:15:00,
2013-11-11 15:30:00,85.2,74.3,29.75,ESE,112,6.9,18.7,70,0.00,,FEW028,0.00,VWS V13.01,2013-11-11 05:30:00,
2013-11-11 15:45:00,85.0,74.6,29.75,ESE,112,6.9,15.0,71,0.00,,FEW028,0.00,VWS V13.01,2013-11-11 05:45:00,
2013-11-11 16:00:00,85.1,74.6,29.75,ESE,112,6.9,21.3,71,0.00,,FEW028,0.00,VWS V13.01,2013-11-11 06:00:00,
2013-11-11 16:15:00,84.6,74.6,29.75,ESE,112,6.9,20.0,72,0.00,,FEW028,0.00,VWS V13.01,2013-11-11 06:15:00,
2013-11-11 16:30:00,83.4,74.2,29.75,SE,135,6.9,16.3,74,0.00,,FEW028,0.00,VWS V13.01,2013-11-11 06:30:00,
2013-11-11 16:45:00,82.9,74.6,29.75,ESE,112,6.9,13.7,76,0.00,,FEW028,0.00,VWS V13.01,2013-11-11 06:45:00,
2013-11-11 17:00:00,82.5,74.6,29.75,SE,135,5.6,13.7,77,0.00,,FEW028,0.00,VWS V13.01,2013-11-11 07:00:00,
2013-11-11 17:15:00,82.3,74.4,29.76,ESE,112,4.4,11.3,77,0.00,,FEW028,0.00,VWS V13.01,2013-11-11 07:15:00,
2013-11-11 17:30:00,81.7,74.6,29.76,SE,135,4.4,10.0,79,0.00,,FEW028,0.00,VWS V13.01,2013-11-11 07:30:00,
2013-11-11 17:45:00,81.4,74.6,29.77,SE,135,3.1,13.7,80,0.00,,FEW028,0.00,VWS V13.01,2013-11-11 07:45:00,
2013-11-11 18:00:00,81.0,74.6,29.77,SE,135,3.1,8.7,81,0.00,,FEW028,0.00,VWS V13.01,2013-11-11 08:00:00,
2013-11-11 18:15:00,80.8,74.8,29.77,SE,135,4.4,12.5,82,0.00,,FEW028,0.00,VWS V13.01,2013-11-11 08:15:00,
2013-11-11 18:30:00,80.3,74.3,29.77,SE,135,4.4,11.3,82,0.00,,FEW028,0.00,VWS V13.01,2013-11-11 08:30:00,
2013-11-11 18:45:00,79.8,73.1,29.78,SE,135,3.1,8.7,80,0.00,,FEW028,0.00,VWS V13.01,2013-11-11 08:45:00,
2013-11-11 19:00:00,79.8,74.2,29.78,SE,135,1.9,8.7,83,0.00,,FEW028,0.00,VWS V13.01,2013-11-11 09:00:00,
2013-11-11 19:15:00,79.6,73.6,29.78,SE,135,1.9,5.0,82,0.00,,FEW028,0.00,VWS V13.01,2013-11-11 09:15:00,
2013-11-11 19:30:00,79.7,74.4,29.79,SE,135,3.1,8.7,84,0.00,,FEW028,0.00,VWS V13.01,2013-11-11 09:30:00,
2013-11-11 19:45:00,79.8,74.5,29.79,SE,135,3.1,8.7,84,0.00,,FEW028,0.00,VWS V13.01,2013-11-11 09:45:00,
2013-11-11 20:00:00,79.8,74.5,29.79,SE,135,3.1,7.5,84,0.00,,FEW028,0.00,VWS V13.01,2013-11-11 10:00:00,
2013-11-11 20:15:00,79.9,74.6,29.80,SE,135,3.1,10.0,84,0.00,,FEW028,0.00,VWS V13.01,2013-11-11 10:15:00,
2013-11-11 20:30:00,80.0,74.7,29.80,SE,135,3.1,7.5,84,0.00,,FEW028,0.00,VWS V13.01,2013-11-11 10:30:00,
2013-11-11 20:45:00,79.9,74.6,29.80,ESE,112,4.4,11.3,84,0.00,,FEW028,0.00,VWS V13.01,2013-11-11 10:45:00,
2013-11-11 21:00:00,79.5,73.9,29.80,ESE,112,4.4,10.0,83,0.00,,FEW028,0.00,VWS V13.01,2013-11-11 11:00:00,
2013-11-11 21:15:00,79.5,74.6,29.80,ESE,112,3.1,11.3,85,0.00,,FEW028,0.00,VWS V13.01,2013-11-11 11:15:00,
2013-11-11 21:30:00,79.4,74.5,29.81,SE,135,1.9,7.5,85,0.00,,FEW028,0.00,VWS V13.01,2013-11-11 11:30:00,
2013-11-11 21:45:00,79.2,74.3,29.81,SE,135,3.1,7.5,85,0.00,,FEW028,0.00,VWS V13.01,2013-11-11 11:45:00,
2013-11-11 22:00:00,79.2,74.7,29.81,SE,135,1.9,6.2,86,0.00,,FEW028,0.00,VWS V13.01,2013-11-11 12:00:00,
2013-11-11 22:15:00,79.1,74.6,29.81,SE,135,3.1,7.5,86,0.00,,FEW028,0.00,VWS V13.01,2013-11-11 12:15:00,
2013-11-11 22:30:00,78.9,74.4,29.81,ESE,112,3.1,6.2,86,0.00,,FEW028,0.00,VWS V13.01,2013-11-11 12:30:00,
2013-11-11 22:45:00,79.0,74.5,29.82,SE,135,3.1,8.7,86,0.00,,FEW028,0.00,VWS V13.01,2013-11-11 12:45:00,
2013-11-11 23:00:00,79.0,74.5,29.81,SE,135,3.1,10.0,86,0.00,,FEW028,0.00,VWS V13.01,2013-11-11 13:00:00,
2013-11-11 23:15:00,79.0,74.5,29.81,SE,135,1.9,6.2,86,0.00,,FEW028,0.00,VWS V13.01,2013-11-11 13:15:00,
2013-11-11 23:30:00,79.0,74.5,29.80,SE,135,1.9,6.2,86,0.00,,FEW028,0.00,VWS V13.01,2013-11-11 13:30:00,
2013-11-11 23:45:00,79.0,74.5,29.80,SE,135,3.1,8.7,86,0.00,,FEW028,0.00,VWS V13.01,2013-11-11 13:45:00,